Back to catalog

STARLINK-36987

AliveCommunicationsVLEO
NORAD 68321·PAYLOAD·🇺🇸 United States

Launched Mar 22, 2026 from Cape Canaveral Space Force Station

Loading…

Next Passes (next 24 hours)

TLE

FreshSource: CelesTrak SupGP

Epoch: Sep 15, 2026, 03:16 UTC

1 68321C 26059A   26258.13659722 -.00047953  00000+0 -14168-2 0  2589
2 68321  53.1589 186.6605 0001331  84.5505 286.4239 15.34412786    16

Track STARLINK-36987 in real time with AllMySat

Download on the App Store